Regional Weather Roundup
Issued by NWS

Home | Current Version | Previous Version | Text Only | Print | Product List | Glossary Off
Versions: 1 2 3 4 5 6 7 8 9 10 11 12 13 14 15 16 17 18 19 20 21 22 23 24 25 26 27 28 29 30 31 32 33 34 35 36 37 38 39 40 41 42 43 44 45 46 47 48 49 50

000
ASUS43 KLOT 281600
RWRIL

ILLINOIS REGIONAL WEATHER ROUNDUP
NATIONAL WEATHER SERVICE CHICAGO/ROMEOVILLE IL
1000 AM CST SUN DEC 28 2014

NOTE: "FAIR" INDICATES FEW OR NO CLOUDS BELOW 12,000 FEET WITH NO
SIGNIFICANT WEATHER AND/OR OBSTRUCTIONS TO VISIBILITY.

* THESE STATIONS ARE NOT UNDER NWS QUALITY CONTROL. THEY ALSO MAY NOT
  REPORT WEATHER SUCH AS PRECIPITATION OR FOG.

ILZ001-002-007-009-015-016-024-281700-
NORTHWEST ILLINOIS

CITY           SKY/WX    TMP DP  RH WIND       PRES   REMARKS
MOLINE         SUNNY     24  17  74 W6        30.23R WCI  17
STERLING*      SUNNY     25  18  74 W8        30.22R WCI  16
$$

ILZ003-004-008-010-011-017-018-281700-
NORTH CENTRAL ILLINOIS

CITY           SKY/WX    TMP DP  RH WIND       PRES   REMARKS
ROCKFORD       MOSUNNY   23  16  74 W5        30.21R WCI  17
DE KALB*       MOSUNNY   22  16  80 SW6       30.20R WCI  14
$$

ILZ005-006-012>014-019>023-281700-
NORTHEAST ILLINOIS

CITY           SKY/WX    TMP DP  RH WIND       PRES   REMARKS
CHICAGO-OHARE  PTSUNNY   24  16  71 SW7       30.20R WCI  16
CHICAGO-MIDWAY PTSUNNY   28  20  71 W8        30.22R WCI  20
AURORA         MOSUNNY   24  17  74 W6        30.22R WCI  17
WAUKEGAN       MOSUNNY   24  17  74 SW6       30.17R WCI  17
DUPAGE AIRPORT MOSUNNY   24  16  71 W6        30.20R WCI  17
WHEELING       MOSUNNY   24  15  68 SW7       30.21R WCI  16
NORTHERLY ISL    N/A     27  19  72 W8          N/A  WCI  19
$$

LMZ740>746-281700-
SOUTHERN LAKE MICHIGAN

STATION/POSITION SKY/WX   TEMP    WIND        PRES    VSBY  WAVE
                          AIR SEA DIR/SP/G                  HT/PER
                          (F)     (DEG/KT/KT) (MB)    (MI)  (FT/S)
WAUKEGAN HARBOR            23     250/  7/ 12   N/A
HARRISON CRIB              25     260/  9/ 11   N/A
BURNHAM HARBOR             27     290/  5/ 10   N/A
CALUMET HARBOR             26     230/  7/ 11 1021.5R
MICHIGAN CITY              29     250/ 11/ 13   N/A
$$

ILZ025>027-034>036-040-047-049-050-058-095>099-281700-
WEST-CENTRAL ILLINOIS

CITY           SKY/WX    TMP DP  RH WIND       PRES   REMARKS
QUINCY         PTSUNNY   27  21  78 W5        30.25R WCI  22
$$

ILZ028>032-037-038-041>044-048-051>054-059>061-281700-
CENTRAL ILLINOIS

CITY           SKY/WX    TMP DP  RH WIND       PRES   REMARKS
DECATUR        CLOUDY    28  21  75 NW9       30.24R WCI  19
PEORIA         PTSUNNY   28  19  69 W7        30.25R WCI  21
SPRINGFIELD    CLOUDY    30  22  72 NW3       30.26R
TAYLORVILLE    NOT AVBL
$$

ILZ033-039-045-046-055>057-062-063-281700-
EAST-CENTRAL ILLINOIS

CITY           SKY/WX    TMP DP  RH WIND       PRES   REMARKS
CHAMPAIGN      CLOUDY    27  22  81 W13       30.23R WCI  16
MATTOON        CLOUDY    29  24  82 N10       30.22S WCI  20
$$

ILZ079-100>102-281700-
SOUTHWEST ILLINOIS

CITY           SKY/WX    TMP DP  RH WIND       PRES   REMARKS
ALTON          CLOUDY    32  25  74 W7        30.26S WCI  26
BELLEVILLE     CLOUDY    32  27  82 NW8       30.25R WCI  25
CAHOKIA*       CLOUDY    33  25  72 N7        30.27R WCI  27
$$

ILZ064>066-069>071-074>076-080>082-084>086-088>090-092>094-281700-
SOUTH-CENTRAL ILLINOIS

CITY           SKY/WX    TMP DP  RH WIND       PRES   REMARKS
CARBONDALE     CLOUDY    34  27  75 N7        30.24S WCI  28
MARION         CLOUDY    34  28  80 NW12      30.25R WCI  25
MT. VERNON     CLOUDY    32  23  69 N6        30.25R WCI  26
$$

ILZ067-068-072-073-078-083-087-091-281700-
SOUTHEAST ILLINOIS

CITY           SKY/WX    TMP DP  RH WIND       PRES   REMARKS
LAWRENCEVILLE  CLOUDY    33  27  78 N8        30.24R WCI  26
$$

ABBREVIATIONS USED IN REMARKS
   TC - TEMPERATURE IN CELSIUS
  WCI - WIND CHILL INDEX
   HX - HEAT INDEX
  VSB - VISIBILITY
$$



USA.gov is the U.S. government's official web portal to all federal, state and local government web resources and services.